Weather History for Lacon, IL

Change the Weather History Date:

Thursday, May 15, 2014

  Actual Average (KPIA) Record (KPIA)
Temperature  
Mean Temperature 50 °F 62 °F  
Max Temperature 57 °F 73 °F 93 °F (1894)
Min Temperature 44 °F 51 °F 35 °F (1920)
Degree Days  
Heating Degree Days 15 5  
Month to date heating degree days 95  
Since 1 July heating degree days 5760  
Cooling Degree Days 0 2  
Month to date cooling degree days 20  
Year to date cooling degree days 34  
Moisture  
Dew Point 44 °F    
Average Humidity 86    
Maximum Humidity 98    
Minimum Humidity 59    
Precipitation  
Precipitation 0.59 in 0.14 in 2.43 in (1968)
Month to date precipitation 2.10  
Year to date precipitation 12.10  
Snow  
Snow 0.00 in 0.00 in 0.00 in ()
Month to date snowfall 0.0  
Since 1 July snowfall 24.6  
Snow Depth -    
Sea Level Pressure  
Sea Level Pressure 30.01 in    
Wind  
Wind Speed 5 mph (NNW)    
Max Wind Speed 10 mph    
Max Gust Speed 17 mph    
Visibility 9 miles    
Events Rain , Thunderstorm    
T = Trace of Precipitation, MM = Missing Value Source: NWS Daily Summary

Daily Weather History Graph

Daily Weather History Graph

Search for Another Location

Airport:

Trip Planner

Search our weather history database for the weather conditions in past years. The results will help you decide how hot, cold, wet, or windy it might be!

Date:

Astronomy

May. 15, 2014 Rise Set
Actual Time 5:39 AM CDT 8:08 PM CDT
Civil Twilight 5:08 AM CDT 8:40 PM CDT
Nautical Twilight 4:29 AM CDT 9:19 PM CDT
Astronomical Twilight 3:46 AM CDT 10:02 PM CDT
Moon 9:16 PM CDT (5/15) 6:26 AM CDT (5/15)
Length of Visible Light 15h 31m
Length of Day
14h 29m
Full, 99% of the Moon is Illuminated
May 15
Full
May 21
Last Quarter
May 28
New
Jun 5
First Quarter
Jun 12
Full

Hourly Weather History & Observations

Time (CDT) Temp. Windchill Dew Point Humidity Pressure Visibility Wind Dir Wind Speed Gust Speed Precip Events Conditions
12:15 AM 46.4 °F 43.5 °F 44.8 °F 94% 30.03 in 10.0 mi NNW 5.8 mph - N/A   Light Drizzle
12:35 AM 46.4 °F 44.3 °F 44.6 °F 93% 30.02 in 10.0 mi NW 4.6 mph - N/A   Light Drizzle
12:55 AM 46.6 °F - 44.4 °F 92% 30.01 in 10.0 mi NNW 5.8 mph - N/A   Overcast
1:15 AM 46.6 °F - 43.9 °F 90% 30.00 in 10.0 mi North 4.6 mph - N/A   Light Drizzle
1:35 AM 46.4 °F - 44.6 °F 93% 29.99 in 10.0 mi Calm Calm - N/A   Light Drizzle
1:55 AM 46.6 °F - 44.1 °F 91% 29.98 in 10.0 mi NNW 3.5 mph - N/A   Light Drizzle
2:15 AM 46.6 °F - 44.6 °F 93% 29.97 in 10.0 mi NNW 4.6 mph - N/A Rain Light Rain
2:35 AM 46.4 °F 44.3 °F 44.6 °F 93% 29.97 in 10.0 mi NW 4.6 mph - N/A Rain Rain
2:55 AM 46.6 °F - 44.2 °F 92% 29.97 in 10.0 mi NW 4.6 mph - N/A   Light Drizzle
3:15 AM 46.6 °F - 44.1 °F 91% 29.97 in 10.0 mi NW 5.8 mph - 0.01 in   Light Drizzle
3:35 AM 46.6 °F - 44.2 °F 92% 29.97 in 10.0 mi NW 5.8 mph - 0.01 in Rain Light Rain
3:55 AM 46.6 °F - 44.6 °F 93% 29.97 in 10.0 mi NW 5.8 mph - 0.02 in Rain Light Rain
4:15 AM 46.6 °F - 44.6 °F 93% 29.96 in 10.0 mi NW 4.6 mph - N/A Rain Light Rain
4:35 AM 46.6 °F - 44.2 °F 92% 29.96 in 10.0 mi NNW 8.1 mph - 0.01 in Rain Light Rain
4:55 AM 46.4 °F 43.5 °F 44.6 °F 93% 29.96 in 10.0 mi NNW 5.8 mph - N/A Rain Rain
5:15 AM 46.4 °F 45.2 °F 44.6 °F 93% 29.96 in 7.0 mi NNW 3.5 mph - 0.01 in Rain Light Rain
5:35 AM 46.4 °F 42.4 °F 43.7 °F 90% 29.97 in 10.0 mi NW 8.1 mph - 0.02 in Rain Light Rain
5:55 AM 46.2 °F 42.7 °F 43.2 °F 89% 29.97 in 10.0 mi NNW 6.9 mph - 0.03 in Rain Light Rain
6:15 AM 46.0 °F 42.5 °F 43.3 °F 90% 29.98 in 10.0 mi NNW 6.9 mph - N/A   Drizzle
6:35 AM 46.0 °F 43.1 °F 42.8 °F 88% 29.99 in 10.0 mi NNW 5.8 mph - 0.01 in Rain Light Rain
6:55 AM 46.2 °F 42.7 °F 42.8 °F 88% 29.99 in 10.0 mi NNW 6.9 mph - 0.02 in Rain Light Rain
7:15 AM 46.4 °F 45.2 °F 43.7 °F 90% 30.00 in 10.0 mi North 3.5 mph - 0.01 in Rain Light Rain
7:35 AM 46.4 °F 42.4 °F 43.5 °F 90% 30.00 in 10.0 mi North 8.1 mph - 0.01 in Rain Light Rain
7:55 AM 46.2 °F 44.1 °F 43.0 °F 88% 30.00 in 10.0 mi NNE 4.6 mph - 0.01 in   Light Drizzle
8:15 AM 46.6 °F - 43.7 °F 90% 30.00 in 10.0 mi NE 8.1 mph - N/A Rain Light Rain
8:35 AM 46.4 °F 42.9 °F 42.8 °F 87% 30.00 in 10.0 mi NNE 6.9 mph - N/A   Mostly Cloudy
8:55 AM 47.1 °F - 42.4 °F 84% 30.01 in 10.0 mi NNW 8.1 mph - N/A   Scattered Clouds
9:15 AM 47.5 °F - 42.4 °F 83% 30.02 in 10.0 mi North 8.1 mph - N/A   Clear
9:35 AM 48.4 °F - 42.8 °F 81% 30.02 in 10.0 mi NNW 8.1 mph - N/A   Scattered Clouds
9:55 AM 48.4 °F - 42.8 °F 81% 30.02 in 10.0 mi NW 9.2 mph - N/A   Mostly Cloudy
10:15 AM 50.0 °F - 43.0 °F 77% 30.03 in 10.0 mi North 6.9 mph - N/A   Mostly Cloudy
10:35 AM 50.9 °F - 42.8 °F 74% 30.02 in 10.0 mi NNW 8.1 mph - N/A   Scattered Clouds
10:55 AM 50.9 °F - 42.6 °F 73% 30.03 in 10.0 mi North 9.2 mph - N/A   Scattered Clouds
11:15 AM 51.6 °F - 43.5 °F 74% 30.03 in 10.0 mi North 5.8 mph - N/A   Scattered Clouds
11:35 AM 52.0 °F - 42.6 °F 70% 30.03 in 10.0 mi NNW 6.9 mph - N/A   Clear
12:35 PM 53.4 °F - 42.8 °F 67% 30.02 in 10.0 mi WNW 3.5 mph - N/A   Scattered Clouds
12:55 PM 55.0 °F - 44.2 °F 67% 30.02 in 10.0 mi North 3.5 mph - N/A Thunderstorm Scattered Clouds
1:15 PM 53.6 °F - 42.8 °F 67% 30.01 in 10.0 mi NNW 4.6 mph - N/A   Scattered Clouds
1:35 PM 53.6 °F - 42.8 °F 67% 30.01 in 10.0 mi North 3.5 mph - N/A   Overcast
2:15 PM 55.4 °F - 43.7 °F 65% 30.00 in 10.0 mi NNW 5.8 mph - N/A   Scattered Clouds
2:35 PM 55.9 °F - 41.7 °F 59% 29.99 in 10.0 mi ENE 3.5 mph - N/A   Scattered Clouds
2:55 PM 56.5 °F - 43.0 °F 61% 29.99 in 10.0 mi ENE 3.5 mph - N/A Thunderstorm Thunderstorm
3:15 PM 56.5 °F - 42.4 °F 59% 29.98 in 10.0 mi ENE 5.8 mph - N/A   Mostly Cloudy
3:35 PM 55.2 °F - 42.8 °F 63% 29.99 in 10.0 mi East 5.8 mph - N/A   Mostly Cloudy
3:55 PM 53.8 °F - 43.3 °F 68% 30.01 in 10.0 mi WSW 10.4 mph 17.3 mph N/A Rain Rain
4:15 PM 44.8 °F 39.9 °F 42.3 °F 91% 30.03 in 1.0 mi WSW 9.2 mph - 0.23 in Rain Heavy Rain
4:35 PM 44.8 °F - 43.2 °F 94% 30.03 in 3.0 mi Calm Calm - 0.34 in Rain Rain
4:55 PM 45.9 °F 43.6 °F 43.7 °F 92% 30.03 in 5.0 mi NW 4.6 mph - 0.38 in Rain Rain
5:15 PM 46.4 °F - 44.2 °F 92% 30.02 in 7.0 mi Calm Calm - 0.01 in Rain Light Rain
5:35 PM 46.8 °F - 45.1 °F 94% 30.02 in 10.0 mi Calm Calm - 0.01 in Rain Light Rain
5:55 PM 46.8 °F - 44.8 °F 93% 30.02 in 10.0 mi Calm Calm - 0.01 in Rain Rain
6:15 PM 46.9 °F - 45.5 °F 95% 30.02 in 10.0 mi ENE 4.6 mph - N/A   Drizzle
6:35 PM 46.9 °F - 45.3 °F 94% 30.02 in 10.0 mi ENE 5.8 mph - N/A   Light Drizzle
6:55 PM 46.9 °F - 45.1 °F 93% 30.02 in 10.0 mi ENE 5.8 mph - N/A   Overcast
7:15 PM 46.6 °F - 44.6 °F 93% 30.02 in 10.0 mi ENE 4.6 mph - N/A   Overcast
7:35 PM 46.6 °F - 44.2 °F 92% 30.02 in 10.0 mi Calm Calm - N/A Rain Rain
7:55 PM 46.4 °F - 44.4 °F 93% 30.03 in 7.0 mi Calm Calm - 0.05 in Rain Rain
8:15 PM 45.9 °F - 44.2 °F 94% 30.03 in 10.0 mi Calm Calm - 0.02 in Rain Light Rain
8:35 PM 46.0 °F - 45.5 °F 98% 30.03 in 7.0 mi Calm Calm - 0.03 in Rain Rain
8:55 PM 46.4 °F - 45.7 °F 97% 30.03 in 7.0 mi Calm Calm - 0.04 in Rain Rain
9:15 PM 46.0 °F - 44.8 °F 95% 30.03 in 7.0 mi Calm Calm - 0.01 in Rain Light Rain
9:35 PM 46.2 °F - 45.0 °F 95% 30.03 in 10.0 mi Calm Calm - 0.01 in   Overcast
9:55 PM 46.4 °F - 44.6 °F 93% 30.03 in 10.0 mi Calm Calm - 0.01 in   Overcast
10:15 PM 46.4 °F 45.2 °F 45.1 °F 95% 30.03 in 10.0 mi SE 3.5 mph - N/A   Overcast
10:35 PM 46.4 °F - 44.2 °F 92% 30.03 in 10.0 mi Calm Calm - N/A Rain Light Rain
10:55 PM 46.2 °F - 44.1 °F 92% 30.03 in 10.0 mi Calm Calm - N/A   Drizzle
11:15 PM 46.0 °F - 44.1 °F 93% 30.02 in 10.0 mi Calm Calm - 0.01 in Rain Light Rain
11:35 PM 45.9 °F - 43.9 °F 93% 30.01 in 10.0 mi Calm Calm - 0.01 in   Light Drizzle
11:55 PM 45.9 °F - 44.6 °F 95% 30.01 in 10.0 mi Calm Calm - 0.01 in Rain Light Rain